Regional Weather Roundup
Issued by NWS State College, PA

Home | Current Version | Previous Version | Graphics & Text | Print | Product List | Glossary Off
Versions: 1 2 3 4 5 6 7 8 9 10 11 12 13 14 15 16 17 18 19 20 21 22 23 24 25 26 27 28 29 30 31 32 33 34 35 36 37 38 39 40 41 42 43 44 45 46 47 48 49 50

000
ASUS41 KCTP 060710
RWRCTP

REGIONAL WEATHER ROUNDUP
NATIONAL WEATHER SERVICE STATE COLLEGE PA
300 AM EDT MON JUL 06 2015

Note: "fair" indicates few or no clouds below 12,000 feet with no
significant weather and/or obstructions to visibility.

* = STATION THAT DOES NOT REPORT PRECIPITATION /E.G. RAIN...SNOW...ETC/
    THUNDER OR FOG.

PAZ002>004-007>009-013>016-020>023-029>032-060800-
WESTERN PENNSYLVANIA

CITY           SKY/WX    TMP DP  RH WIND       PRES   REMARKS
ERIE           MOCLDY    68  58  70 S8        30.08S
MEADVILLE      MOCLDY    68  59  73 E3        30.11R
FRANKLIN*      MOCLDY    63  55  77 E5        30.12S
NEW CASTLE     FAIR      67  64  90 CALM      30.08S
BEAVER COUNTY  NOT AVBL
BUTLER*        CLOUDY    70  63  78 SE6       30.09F
PITTSBURGH INT CLOUDY    72  65  78 SE6       30.06F
PITTSBURGH     CLOUDY    71  63  75 SE7       30.07F
INDIANA*       CLOUDY    68  66  94 CALM      30.14F
LATROBE        NOT AVBL
WASHINGTON CO* NOT AVBL
$$

PAZ004>006-010>012-017>019-024>028-033>037-041-042-045-046-049>053-060800-
CENTRAL PENNSYLVANIA

CITY           SKY/WX    TMP DP  RH WIND       PRES   REMARKS
BRADFORD       MOCLDY    58  55  90 CALM      30.16F
DUBOIS         CLOUDY    64  60  87 E6        30.13F
CLEARFIELD     CLOUDY    60  59  96 N8        30.15S FOG
JOHNSTOWN      CLOUDY    67  64  90 SE6       30.15S
ALTOONA        CLOUDY    68  64  87 E3        30.15S
STATE COLLEGE  CLOUDY    64  63  96 CALM      30.14F
WILLIAMSPORT   PTCLDY    63  60  90 CALM      30.13F
SELINSGROVE    MOCLDY    65  63  93 CALM      30.14F FOG
FT INDIANTOWN  CLOUDY    66  65  96 NE2       30.14S
CAPITAL CITY   CLOUDY    71  66  84 E3        30.12F
HARRISBURG     CLOUDY    70  67  90 CALM      30.12F
YORK           CLOUDY    71  68  90 CALM      30.13S
$$

PAZ038>040-043-044-047-048-054-055-060>062-067>071-060800-
EASTERN PENNSYLVANIA

CITY           SKY/WX    TMP DP  RH WIND       PRES   REMARKS
SCRANTON       MOCLDY    63  57  81 E7        30.16F
MOUNT POCONO   MOCLDY    58  56  93 CALM      30.20F FOG
ALLENTOWN      MOCLDY    65  63  93 CALM      30.15S FOG
QUAKERTOWN*    PTSUNNY   64  64 100 CALM      30.17S
READING        CLOUDY    69  65  86 CALM      30.14S
LANCASTER      CLOUDY    68  66  93 NE5       30.14S FOG
COATESVILLE    CLOUDY    68  68 100 CALM      30.16F FOG
POTTSTOWN      CLOUDY    67  67 100 CALM      30.16F
BLUE BELL      MOCLDY    68  68 100 CALM      30.15S
DOYLESTOWN     MOCLDY    67  65  93 CALM      30.15S
WILLOW GROVE   NOT AVBL
NORTH PHILA    CLOUDY    73  65  75 CALM      30.16F
PHILADELPHIA   CLOUDY    73  68  84 CALM      30.15S
$$


USA.gov is the U.S. government's official web portal to all federal, state and local government web resources and services.